SCP
0 1 1 1 0 0 0 0 0 0 0 0 0 0 0 0 0 0 0 0 0 0 0 0 0 0 0 0 0 0 0 0 0 0 0 0 0 0 0 0 0 0 0
1 1 0 0 0 0 0 0 0 0 0 0 0 0 0 0 0 0 0 0 0 0 0 1 1 0 0 0 0 0 0 0 0 0 0 0 0 0 0 0 0 0 0
1 0 0 0 0 0 0 0 0 0 1 1 1 0 0 0 0 0 0 0 0 0 1 1 1 1 0 0 0 0 0 0 0 0 0 0 0 0 0 0 0 0 0
1 1 1 1 0 0 0 0 1 1 1 1 1 1 0 0 0 0 0 0 0 0 0 1 1 1 0 0 0 0 0 0 0 0 0 0 0 0 0 0 0 0 0
1 1 1 1 1 0 0 1 1 1 1 1 1 1 0 0 0 0 0 0 0 0 0 0 1 1 0 0 0 0 0 0 0 0 0 0 0 0 0 0 0 0 1
1 1 1 1 1 1 1 1 1 1 1 1 1 0 0 0 0 0 0 0 0 0 0 0 1 1 1 0 0 0 0 0 0 0 0 0 0 0 0 0 0 0 1
1 1 1 1 1 1 1 1 1 1 1 1 0 0 0 1 0 0 0 0 0 0 0 0 1 1 1 1 1 1 1 0 0 0 0 0 0 0 0 0 0 0 1
1 1 1 1 1 1 1 1 1 1 1 0 0 0 1 1 1 1 0 0 0 0 0 0 1 1 1 1 1 1 1 1 0 0 0 0 0 0 0 0 1 1 1
1 1 1 1 1 1 1 1 1 1 1 1 0 1 1 1 1 0 0 0 0 0 0 1 1 1 1 1 1 1 0 0 0 0 0 0 0 0 0 1 1 1 1
1 1 1 1 1 1 1 1 1 1 1 1 1 1 1 1 1 0 0 0 1 1 1 1 1 1 1 1 1 0 0 0 0 0 0 0 0 0 1 1 1 1 1
0 0 1 1 1 1 1 1 1 1 1 1 1 1 1 1 0 1 1 1 1 1 1 1 1 1 1 1 1 0 0 0 0 0 0 0 0 1 1 1 0 0 0
0 0 1 1 1 1 1 1 1 1 1 1 1 1 1 1 1 1 1 1 1 1 1 1 1 1 0 0 1 1 0 0 0 0 0 0 0 1 1 0 0 0 0
0 0 1 1 1 1 1 1 1 1 1 1 1 1 1 1 1 1 1 1 1 1 1 1 0 0 0 0 0 0 0 0 0 0 0 0 0 0 0 0 0 0 0
1 1 1 1 1 1 1 1 1 1 1 1 1 1 1 2 2 1 1 1 1 1 1 1 0 0 0 0 0 0 0 0 0 0 0 0 0 0 0 0 0 0 0
1 1 1 1 1 1 1 1 1 1 1 1 1 1 1 2 2 2 1 1 1 1 1 1 1 1 1 0 0 0 0 0 0 0 0 1 1 1 1 1 0 0 0
1 1 1 1 1 1 1 1 1 1 1 1 1 1 1 1 2 2 2 2 1 1 1 1 1 0 0 0 0 0 0 0 1 1 1 1 1 1 1 1 0 0 0
1 1 1 1 1 0 1 1 1 1 1 1 1 1 1 1 1 2 2 2 1 1 1 1 1 1 0 0 0 0 0 1 1 1 1 1 1 1 1 1 1 0 0
1 2 2 1 1 1 1 1 1 1 1 1 1 1 1 1 1 2 2 1 1 1 1 1 1 1 1 1 1 1 1 1 1 1 1 1 0 0 0 0 1 0 0
2 2 2 1 1 1 1 2 1 1 1 1 1 1 1 1 1 1 1 1 1 1 1 1 1 1 1 1 1 1 1 1 1 1 1 1 0 0 0 0 0 0 0
1 1 1 1 1 1 1 2 2 1 1 1 1 1 1 1 1 1 1 1 1 1 1 1 1 1 1 1 1 1 1 1 1 1 1 1 0 0 0 0 0 0 0
1 1 1 1 1 1 1 2 2 2 1 1 1 1 1 1 1 1 1 1 1 1 1 1 1 1 1 1 1 1 1 1 1 1 1 0 0 0 0 0 0 0 0
1 1 1 1 1 1 1 1 2 2 1 1 1 1 0 0 0 1 1 1 1 1 1 1 1 1 1 1 1 1 1 1 1 1 1 0 0 0 0 0 0 0 0
1 1 1 1 1 1 1 1 1 1 1 1 1 0 0 0 0 1 1 1 1 1 0 0 1 1 1 0 0 1 1 1 1 1 1 0 0 0 0 0 0 0 0
1 1 1 1 1 1 1 1 1 1 1 1 1 1 0 0 0 1 1 0 1 0 0 0 1 1 1 0 0 0 1 1 1 1 1 0 0 0 0 0 0 0 0
2 1 1 1 1 1 1 1 1 1 1 1 1 1 1 1 1 0 0 0 1 1 0 0 1 1 1 0 0 0 0 0 0 0 0 0 0 0 0 0 0 0 0
2 2 1 1 1 1 1 1 1 1 1 1 1 1 1 1 1 0 0 0 1 1 0 1 1 1 1 1 0 0 0 0 0 0 0 0 0 0 0 1 1 1 1
Wind_Speed
7 9 10 10 10 9 9 9 9 9 9 9 9 9 10 10 10 10 11 10 10 11 11 11 10 10 10 10 10 9 8 8 7 7 7 7 7 7 7 6 6 6 8
10 11 10 10 10 9 10 9 9 9 9 9 9 9 10 10 10 10 10 10 10 11 10 10 10 11 10 10 10 9 8 6 5 4 5 6 7 7 8 8 9 6 8
11 11 10 9 9 9 9 9 9 8 9 9 9 9 9 9 9 10 10 10 10 10 10 10 10 10 10 9 9 8 6 5 3 3 1 2 5 7 7 8 8 8 8
10 10 9 9 9 9 8 8 8 8 8 8 9 9 9 9 9 10 10 10 10 10 10 10 10 10 10 9 8 7 5 4 4 3 1 3 4 7 7 7 7 7 7
10 10 10 9 8 8 8 8 8 8 8 8 8 9 9 9 9 9 10 10 9 10 10 10 10 10 9 8 7 6 6 5 5 4 4 5 5 7 7 7 7 6 7
10 10 9 9 8 8 7 7 8 8 8 8 8 8 8 8 8 8 9 9 9 9 9 9 9 9 8 8 7 6 6 6 5 4 4 5 4 7 7 7 6 6 7
9 9 9 9 8 7 7 7 7 7 8 8 7 7 7 7 8 8 8 8 8 8 8 8 8 8 8 7 7 7 6 5 3 3 4 5 5 8 7 7 7 6 6
8 9 9 9 8 7 7 7 7 7 7 7 6 6 6 6 6 7 7 7 7 7 7 7 7 7 7 7 7 7 7 6 5 5 5 5 7 8 7 7 7 7 6
7 7 7 7 7 7 7 7 7 6 6 5 5 5 5 5 6 7 7 7 7 6 6 6 6 6 5 5 5 5 6 6 4 3 5 4 7 8 7 7 7 7 7
5 5 6 6 6 6 6 7 6 6 5 5 5 5 5 5 6 7 7 6 6 6 6 5 4 4 3 2 2 3 4 4 3 4 4 5 8 8 7 8 8 8 8
5 4 4 4 4 5 5 7 6 6 5 4 4 6 4 3 4 4 7 7 6 5 4 3 2 2 2 1 1 2 3 1 3 4 4 7 9 8 8 8 8 8 8
4 3 3 3 4 5 4 5 3 3 3 3 2 3 2 2 3 5 7 7 5 4 3 3 3 2 2 1 1 0 1 2 3 4 5 9 9 9 8 8 7 8 8
4 3 3 3 4 4 3 3 1 1 2 2 2 2 2 3 3 3 2 3 2 2 1 2 2 1 1 1 1 2 2 2 3 4 5 9 9 9 9 8 8 8 7
4 4 4 3 3 4 3 2 2 1 1 1 1 2 2 2 2 2 1 2 1 1 1 1 1 2 3 3 3 3 4 3 3 3 5 9 9 9 9 8 8 8 7
5 5 4 4 3 4 3 2 2 2 2 2 2 2 3 2 2 2 1 2 1 1 1 2 2 3 4 4 4 4 4 4 4 4 4 9 9 9 9 9 8 8 8
5 5 4 4 3 3 3 2 2 2 2 2 1 2 3 2 2 2 2 2 2 2 2 2 2 3 3 3 4 4 4 3 4 5 4 5 8 9 9 8 8 7 7
5 5 4 4 3 3 3 3 3 2 2 2 2 2 2 2 3 3 3 2 2 3 3 3 3 3 3 3 3 3 3 3 3 4 4 3 4 7 8 8 8 7 7
4 4 4 3 3 3 3 3 2 2 3 2 2 2 3 3 3 3 2 2 2 3 2 2 2 3 2 2 2 2 2 2 3 3 3 3 3 3 5 7 7 7 7
4 4 4 3 3 3 3 3 3 3 2 2 2 2 3 3 3 3 2 2 3 2 2 2 2 2 2 2 1 2 2 2 2 3 3 3 3 3 3 5 6 7 6
3 4 4 3 4 4 2 2 2 2 2 2 2 2 3 2 3 3 2 3 3 2 2 2 2 2 1 1 2 3 2 2 2 2 2 2 3 3 3 4 3 4 6
3 4 4 3 3 3 2 2 2 1 1 1 1 2 2 2 3 3 3 2 2 2 2 2 2 2 2 1 2 2 2 2 2 2 2 2 3 3 3 3 2 2 2
3 3 3 3 3 3 2 1 1 2 1 1 1 1 1 2 2 2 2 2 2 2 2 2 2 1 1 1 1 1 1 2 3 2 2 2 2 2 3 3 3 3 2
3 3 3 3 3 3 3 2 1 1 1 1 1 1 1 2 2 2 2 1 2 1 1 1 1 1 0 2 1 1 1 1 1 1 2 2 2 2 2 2 3 3 4
3 2 2 2 2 3 3 2 1 1 1 1 1 1 1 1 1 2 2 1 1 1 2 1 1 1 0 0 1 1 1 1 1 0 1 1 2 2 2 2 3 3 3
3 2 1 2 2 2 2 2 2 1 0 1 1 2 1 0 1 1 2 1 1 1 0 1 1 1 0 0 0 1 1 0 0 1 0 1 1 1 1 2 2 3 3
3 2 1 2 1 1 1 2 2 1 1 1 1 1 1 1 1 1 2 1 1 0 0 1 1 0 0 0 0 0 0 0 0 1 1 0 0 1 1 2 2 2 2
Wind_Direction
97 95 87 78 74 73 72 72 70 68 66 68 67 69 69 69 69 71 73 71 69 68 68 67 68 72 73 72 70 68 67 68 71 74 81 86 81 77 75 73 80 83 89
103 100 91 81 76 74 73 70 68 69 70 68 66 68 71 71 72 74 75 72 71 70 68 68 70 69 69 68 68 66 67 66 66 71 87 93 88 79 73 70 76 86 91
102 105 98 85 79 76 76 72 69 70 70 70 69 71 72 73 75 76 74 72 71 70 68 69 69 69 68 67 66 64 62 57 47 47 74 113 99 83 80 79 82 87 90
103 104 97 93 83 77 75 72 69 71 72 73 73 75 77 80 77 76 74 73 69 68 67 66 67 68 66 64 60 55 45 26 10 354 65 96 86 86 85 84 84 86 92
95 98 99 98 90 82 77 73 71 75 76 77 78 80 81 85 82 80 78 74 71 68 68 69 67 66 64 59 51 42 27 11 9 19 60 75 76 82 82 83 84 86 90
98 102 104 101 94 88 81 75 77 79 79 81 84 85 85 86 84 83 80 77 75 71 70 69 67 65 61 54 44 32 16 13 10 50 64 79 84 86 84 81 82 88 90
102 106 112 109 103 97 90 83 81 84 85 86 90 90 88 88 88 88 84 79 77 75 72 70 68 66 58 48 38 28 17 17 25 62 70 72 78 85 84 83 82 89 92
109 112 119 123 118 113 104 98 92 91 93 92 95 97 99 97 94 93 91 86 82 77 75 76 75 71 59 48 39 32 26 20 38 52 77 75 76 78 80 80 80 85 87
109 120 133 138 134 127 121 115 111 108 106 105 107 115 120 117 110 103 97 94 89 84 85 85 83 79 69 55 36 27 23 16 20 33 69 75 78 78 77 75 76 82 83
110 117 130 141 140 139 136 130 128 128 126 132 140 146 146 136 127 117 110 105 100 97 97 99 100 97 91 62 13 0 4 5 42 48 60 72 76 77 76 77 79 80 82
104 105 112 125 125 134 139 135 142 140 143 154 170 179 173 157 135 125 115 122 117 115 118 126 144 144 163 217 307 344 357 43 71 66 63 76 78 77 80 81 83 85 82
111 105 99 112 122 121 120 133 153 149 154 179 179 171 175 129 108 114 128 134 136 138 150 188 207 209 230 241 223 264 31 58 72 73 71 78 80 80 79 81 83 86 84
112 101 89 84 95 103 107 116 126 125 146 165 134 120 115 110 115 117 134 139 148 163 191 194 222 221 72 69 70 87 67 65 69 74 78 82 81 80 79 78 84 87 89
113 107 93 81 89 91 92 106 116 114 104 86 78 107 93 85 92 93 100 125 129 123 70 58 57 54 53 50 53 64 57 63 76 88 86 87 83 81 80 83 84 85 90
113 102 90 85 80 87 89 91 90 80 78 72 36 56 84 80 84 83 79 69 71 65 64 40 41 54 53 40 36 48 55 59 71 84 93 92 87 82 80 82 82 82 82
117 109 102 95 87 89 94 93 84 80 76 75 58 53 76 83 83 83 78 59 58 45 41 42 46 60 63 55 41 40 38 47 68 85 95 96 91 85 80 79 82 83 79
121 115 117 118 103 99 92 91 87 76 73 57 42 52 60 70 80 77 73 59 45 49 44 34 36 50 63 62 56 53 45 38 57 78 89 93 94 86 81 76 77 80 76
122 117 115 117 111 99 91 88 84 74 68 61 44 38 44 61 74 73 74 74 60 57 51 48 41 40 50 51 49 49 51 47 52 70 87 95 94 93 88 83 78 77 73
123 127 125 122 117 105 97 95 83 80 72 61 53 41 36 47 69 73 68 63 63 56 47 44 43 39 50 51 70 72 60 61 55 64 79 86 92 97 97 95 86 78 68
130 121 117 112 107 99 91 90 83 77 77 65 59 45 39 45 66 76 82 73 63 61 49 49 43 26 50 44 49 64 74 87 66 54 64 73 72 79 94 101 97 77 68
123 116 117 113 110 109 99 101 108 105 96 87 90 64 48 51 61 65 66 72 69 74 68 62 59 30 21 50 57 38 30 57 67 75 62 67 70 66 68 83 90 86 78
118 116 124 125 125 128 123 122 136 129 126 103 83 78 52 52 71 82 84 81 72 73 68 69 71 50 349 3 63 85 47 13 3 45 71 68 62 62 60 68 62 72 78
129 130 133 135 140 135 123 99 87 86 103 108 99 88 64 68 72 70 78 82 105 102 99 100 110 91 354 324 18 68 105 145 320 359 53 63 63 60 54 51 55 57 69
114 114 123 129 125 122 127 123 132 154 175 173 144 126 96 73 84 86 77 78 81 104 121 176 125 121 124 306 329 343 57 121 134 352 340 32 59 66 67 53 59 54 60
112 101 105 120 116 119 139 142 140 137 149 108 106 120 123 124 88 102 98 80 64 71 174 141 92 104 109 84 339 327 345 7 109 131 183 342 7 19 63 73 66 58 55
117 113 87 94 97 126 144 137 144 159 148 127 134 153 170 149 146 156 123 119 101 95 25 81 78 103 47 330 337 336 92 60 267 120 153 181 14 311 59 81 76 72 70